THORAD AGENA D DEB, 42553

Orbit data source: Space-Track

THORAD AGENA D DEB, 42553 is space debris in SSO originally from a launch on Wed, 08 Apr 1970 UTC launched from the Air Force Western Test Range (AFWTR). Debris objects in space refer to the collection of defunct objects orbiting the Earth. Examples of debris include non-operational satellites, rocket bodies, and fragments generated from explosions, collisions, or faulty payload assembly.

Loading next visibility...
Identifier
42553, 1970-025TK
Orbit
SSO
Country
Flag of USUS
Related business
Manufacturer
Unknown
Mission
Spacecraft
Bus & Motor
Unknown
Mass
Unknown
Launch date (UTC)
1970-04-08 (56 years ago)
Launch vehicle
Unknown
Launch site
Air Force Western Test Range (AFWTR)
Object type
Payload
Rocket body
Debris
Shape & HBR
Unknown shape, 0.1 m
Radar Cross Section
Small (<0.1 m²)

Expand to show TLE details & history
Last TLE update: 16 hours ago

TLE from 16 hours ago
0 THORAD AGENA D DEB
1 42553U 70025TK  25296.25191124  .00000027  00000-0  18354-3 0  9995
2 42553 100.0863 317.0863 0128259 131.0547 230.1731 13.10986542524518
Epoch: 2025-10-23T06:02Z
TLE epoch observation values (Epoch: 2025-10-23T06:02:45.131Z)
Latitude
0.00005°
Longitude
-165.51559°
Altitude
1,285.214 km
Speed
7.183 km/s
True Right ascension
21h 08m 20s
True Declination
0° 00' 00"
Sunlit
Object was in daylight at epoch
Visualization orbit readout
Latitude
Unknown
Longitude
Unknown
Altitude
Unknown
Speed
Unknown
Apparent Right ascension
Unknown
Apparent Declination
Unknown
Sunlit
N/A
Visualization observer readout
Local Sidereal Time
16:46:18
Azimuth
Unknown
Elevation
Unknown
Doppler factor
Unknown
Orbital elements
Apogee altitude
1,314.129 km
Perigee altitude
1,119.307 km
Semi-major axis
7,594.855 km
Eccentricity
0.01283
Inclination
100.0863°
RAAN
317.0863°
Arg. of periapsis
131.0547°
True anomaly
229.05591°
Mean anomaly
230.1731°
Eccentric anomaly
229.61336°
Mean motion
3.27917 °/min
Orbital period
109.78 mins
BSTAR
0.00018354

Documentation

Showing up to 5 results
|